DW4152 Weather Reports


Display with metric or nautical units.
time (UTC)temp
F
wind
direction
speed
MPH
gust
MPH
rain 1hr
in
rain 24hr
in
rain mn
in
humidity
%
barometer
mb
20260506223037 73 224 0.0 3.0 0.00 0.02 0.02 77 1010.8
20260506221543 74 227 0.0 6.0 0.00 0.02 0.02 75 1010.7
20260506220040 74 198 0.0 4.0 0.00 0.02 0.02 75 1010.4
20260506214533 74 233 0.0 4.0 0.00 0.02 0.02 73 1010.1
20260506213040 75 279 0.0 4.0 0.00 0.02 0.02 73 1010.2
20260506211539 74 220 0.0 2.0 0.00 0.02 0.02 74 1010.3
20260506210034 74 279 0.0 4.0 0.00 0.02 0.02 77 1010.6
20260506204531 73 225 0.0 4.0 0.00 0.02 0.02 77 1010.6
20260506203023 73 269 0.0 0.0 0.00 0.02 0.02 81 1010.6
20260506201523 72 265 0.0 1.0 0.00 0.02 0.02 82 1010.4
20260506200024 71 217 0.0 1.0 0.00 0.02 0.02 84 1010.4
20260506194518 70 313 0.0 2.0 0.00 0.02 0.02 85 1010.6
20260506193022 69 257 0.0 1.0 0.00 0.02 0.02 88 1010.9
20260506191516 69 304 0.0 2.0 0.01 0.02 0.02 88 1011.0
20260506190014 68 255 0.0 0.0 0.02 0.02 0.02 90 1010.9
20260506184511 68 238 0.0 1.0 0.02 0.02 0.02 89 1010.7
20260506183009 69 236 0.0 0.0 0.02 0.02 0.02 87 1011.9
20260506181519 70 236 0.0 0.0 0.01 0.01 0.01 82 1012.2
20260506180005 71 236 0.0 0.0 0.00 0.00 0.00 75 1012.8
20260506174504 72 232 0.0 3.0 0.00 0.00 0.00 73 1012.9
20260506173004 71 261 0.0 0.0 0.00 0.00 0.00 74 1012.5
20260506171609 71 261 0.0 5.0 0.00 0.00 0.00 74 1012.7
20260506170112 71 337 0.0 1.0 0.00 0.00 0.00 75 1012.8
20260506164556 70 337 0.0 2.0 0.00 0.00 0.00 75 1012.7
20260506163058 70 231 0.0 0.0 0.00 0.00 0.00 75 1012.9
20260506161555 70 231 0.0 0.0 0.00 0.00 0.00 75 1012.9
20260506160054 70 231 0.0 0.0 0.00 0.00 0.00 74 1012.2
20260506154609 69 230 0.0 0.0 0.00 0.00 0.00 74 1012.6
20260506153053 69 230 0.0 3.0 0.00 0.00 0.00 73 1012.8
20260506151551 69 323 0.0 0.0 0.00 0.00 0.00 72 1012.7
20260506150050 69 323 0.0 3.0 0.00 0.00 0.00 72 1012.7
20260506144554 69 302 0.0 0.0 0.00 0.00 0.00 71 1012.3
20260506143049 69 304 0.0 0.0 0.00 0.00 0.00 71 1012.3
20260506141548 69 304 0.0 2.0 0.00 0.00 0.00 71 1012.3
20260506140045 69 238 0.0 0.0 0.00 0.00 0.00 72 1012.3
20260506134542 68 238 0.0 0.0 0.00 0.00 0.00 73 1012.0
20260506133049 67 239 0.0 2.0 0.00 0.00 0.00 72 1012.4
20260506131538 66 232 0.0 0.0 0.00 0.00 0.00 73 1012.4
20260506130038 66 231 0.0 1.0 0.00 0.00 0.00 74 1012.5
20260506124534 65 284 0.0 0.0 0.00 0.00 0.00 76 1013.0
20260506123032 64 325 0.0 0.0 0.00 0.00 0.00 77 1012.6
20260506121531 64 325 0.0 0.0 0.00 0.00 0.00 78 1012.5
20260506120032 64 325 0.0 0.0 0.00 0.00 0.00 78 1012.5
20260506114532 64 325 0.0 0.0 0.00 0.00 0.00 79 1012.4
20260506113029 64 326 0.0 0.0 0.00 0.00 0.00 78 1012.3
20260506111527 63 326 0.0 0.0 0.00 0.00 0.00 78 1012.2
20260506110027 63 326 0.0 0.0 0.00 0.00 0.00 78 1012.1
20260506104551 64 326 0.0 0.0 0.00 0.00 0.00 77 1012.1
20260506103023 63 327 0.0 0.0 0.00 0.00 0.00 77 1012.1
20260506101523 64 327 0.0 0.0 0.00 0.00 0.00 77 1012.0
20260506100021 64 327 0.0 2.0 0.00 0.00 0.00 76 1012.0
20260506094524 64 310 0.0 0.0 0.00 0.00 0.00 76 1011.7
20260506093018 64 311 0.0 0.0 0.00 0.00 0.00 76 1012.1
20260506091518 64 312 0.0 0.0 0.00 0.00 0.00 75 1012.3
20260506090017 64 268 0.0 0.0 0.00 0.00 0.00 75 1012.3
20260506084516 64 273 0.0 2.0 0.00 0.00 0.00 74 1012.4
20260506083033 64 223 0.0 1.0 0.00 0.00 0.00 74 1012.6
20260506081615 64 218 0.0 2.0 0.00 0.00 0.00 74 1012.7
20260506073012 64 296 0.0 1.0 0.00 0.00 0.00 75 1012.4
20260506071513 64 308 0.0 0.0 0.00 0.00 0.00 76 1012.4
20260506061505 65 350 0.0 1.0 0.00 0.00 0.00 76 1012.9
20260506050103 66 325 0.0 0.0 0.00 0.00 0.00 74 1013.2
20260506044610 66 331 0.0 3.0 0.00 0.00 0.00 74 1013.2
20260506043057 67 286 0.0 1.0 0.00 0.00 0.00 73 1013.4
20260506041554 67 250 0.0 0.0 0.00 0.00 0.00 72 1013.4
20260506040051 68 248 0.0 1.0 0.00 0.00 0.00 71 1013.0
20260506034551 68 212 0.0 1.0 0.00 0.00 0.00 70 1013.0
20260506033048 68 207 0.0 4.0 0.00 0.00 0.00 69 1013.1
20260506031550 68 305 0.0 2.0 0.00 0.00 0.00 67 1013.1
20260506030048 69 306 0.0 0.0 0.00 0.00 0.00 64 1013.2
20260506024547 69 304 0.0 0.0 0.00 0.00 0.00 61 1013.2
20260506023047 69 304 0.0 0.0 0.00 0.00 0.00 61 1013.2
20260506021555 68 304 0.0 0.0 0.00 0.00 0.00 62 1013.2
20260506020045 68 304 0.0 0.0 0.00 0.00 0.00 61 1013.2
20260506014545 69 304 0.0 0.0 0.00 0.00 0.00 61 1013.1
20260506013046 70 304 0.0 0.0 0.00 0.00 0.00 59 1013.0
20260506011549 71 304 0.0 0.0 0.00 0.00 0.00 57 1012.7
20260506010048 72 304 0.0 0.0 0.00 0.00 0.00 54 1012.6
20260506004542 73 304 0.0 0.0 0.00 0.00 0.00 52 1012.5
20260506003042 74 304 0.0 0.0 0.00 0.00 0.00 50 1012.4
20260506001541 75 304 0.0 0.0 0.00 0.00 0.00 49 1012.3
20260506000041 76 304 0.0 0.0 0.00 0.00 0.00 47 1012.2
20260505234603 76 304 0.0 0.0 0.00 0.00 0.00 45 1011.9
20260505233040 77 304 0.0 2.0 0.00 0.00 0.00 45 1011.8
20260505231539 78 304 0.0 4.0 0.00 0.00 0.00 43 1011.7
20260505230042 79 344 0.0 2.0 0.00 0.00 0.00 43 1011.7
20260505224536 79 331 0.0 2.0 0.00 0.00 0.00 44 1011.8